User: anonymous   Login
Location: Newark
(47.5833°N, 8.1500°E)
Time: 02:37:00
(UTC+00:00)
Language:

Tiros 1 despin weight - Orbit

View from above orbital plane
View from above orbital plane
View from above satellite
View from above satellite

Ground track
Ground track

The orbit data is extracted from the following two-line orbital elements,

1   115U 60002D   21127.79323574 -.00000013  00000-0  25408-4 0  9996
2   115  48.1653 154.4271 0035197 239.3651 120.3789 14.83759355261137
Epoch (UTC): 07 May 2021 19:02:15
Eccentricity: 0.0035197
inclination: 48.1653°
perigee height: 593 km
apogee height: 642 km
right ascension of ascending node: 154.4271°
argument of perigee: 239.3651°
revolutions per day: 14.83759355
mean anomaly at epoch: 120.3789°
orbit number at epoch: 26113

The dashed part of the orbit path shows where the satellite is in the earth's shadow,  

DLR